Location: Days
(41.3591°N, 106.7339°W)
Time: 13:35:27
(UTC+00:00)

RS-15 - Pass Details

Date: 30 June 2022
Orbit: 1881 x 2163 km, 64.8° (Epoch: 13 August)

Event Time Altitude Azimuth Distance (km) Brightness Sun altitude
Rises 04:27:58 0° 317° (NW) 5,684 12.3 -15.3°
Reaches altitude 10° 04:32:13 10° 328° (NNW) 4,689 11.4 -15.8°
Maximum altitude 04:42:51 32° 28° (NNE) 3,251 9.4 -16.9°
Drops below altitude 10° 04:53:16 10° 87° (E) 4,608 9.7 -18.0°
Sets 04:57:20 0° 98° (E) 5,574 10.1 -18.5°
